Weather History for Middlesboro, KY

Change the Weather History Date:

Thursday, February 13, 2014

  Actual Average (KLOZ) Record (KLOZ)
Temperature  
Mean Temperature 33 °F 39 °F  
Max Temperature 42 °F 49 °F 78 °F (1962)
Min Temperature 23 °F 29 °F -9 °F (1955)
Degree Days  
Heating Degree Days 32 26  
Month to date heating degree days 353  
Since 1 July heating degree days 2916  
Cooling Degree Days 0 0  
Month to date cooling degree days 0  
Year to date cooling degree days 0  
Moisture  
Dew Point 28 °F    
Average Humidity 85    
Maximum Humidity 100    
Minimum Humidity 39    
Precipitation  
Precipitation 0.09 in 0.12 in 1.47 in (1976)
Month to date precipitation 1.68  
Year to date precipitation 5.22  
Sea Level Pressure  
Sea Level Pressure 29.78 in    
Wind  
Wind Speed 1 mph (NW)    
Max Wind Speed 9 mph    
Max Gust Speed -    
Visibility 7 miles    
Events Snow    
T = Trace of Precipitation, MM = Missing Value Source: NWS Daily Summary

Daily Weather History Graph

Daily Weather History Graph

Search for Another Location

Airport:

Trip Planner

Search our weather history database for the weather conditions in past years. The results will help you decide how hot, cold, wet, or windy it might be!

Date:

Astronomy

Feb. 13, 2014 Rise Set
Actual Time 6:25 AM CST 5:13 PM CST
Civil Twilight 5:58 AM CST 5:40 PM CST
Nautical Twilight 5:28 AM CST 6:10 PM CST
Astronomical Twilight 4:58 AM CST 6:40 PM CST
Moon 4:20 PM CST (2/13) 5:17 AM CST (2/13)
Length of Visible Light 11h 41m
Length of Day
10h 48m
Waxing Gibbous, 99% of the Moon is Illuminated
Feb 13
Waxing Gibbous
Feb 14
Full
Feb 22
Last Quarter
Mar 1
New
Mar 8
First Quarter

Hourly Weather History & Observations

Time (CST) Temp. Windchill Dew Point Humidity Pressure Visibility Wind Dir Wind Speed Gust Speed Precip Events Conditions
12:15 AM 31.1 °F - 31.1 °F 100% 29.82 in 1.2 mi Calm Calm - 0.01 in Snow Light Snow
12:35 AM 30.9 °F - 30.9 °F 100% 29.81 in 1.2 mi Calm Calm - 0.03 in Snow Light Snow
12:55 AM 30.9 °F - 30.9 °F 100% 29.80 in 1.5 mi Calm Calm - 0.04 in Snow Light Snow
1:15 AM 31.1 °F - 31.1 °F 100% 29.80 in 1.2 mi Calm Calm - 0.01 in Snow Light Snow
1:35 AM 31.1 °F - 31.1 °F 100% 29.78 in 1.5 mi Calm Calm - 0.02 in Snow Light Snow
1:55 AM 31.6 °F - 31.6 °F 100% 29.78 in 2.0 mi Calm Calm - 0.03 in Snow Light Snow
2:15 AM 31.6 °F - 31.6 °F 100% 29.77 in 2.0 mi Calm Calm - N/A Snow Light Snow
2:35 AM 31.6 °F - 31.6 °F 100% 29.76 in 2.5 mi Calm Calm - N/A Snow Light Snow
2:55 AM 31.3 °F - 31.3 °F 100% 29.75 in 4.0 mi Calm Calm - N/A   Overcast
3:15 AM 31.1 °F - 31.1 °F 100% 29.75 in 5.0 mi Calm Calm - N/A   Overcast
3:35 AM 31.3 °F - 31.3 °F 100% 29.76 in 7.0 mi Calm Calm - N/A   Overcast
3:55 AM 31.8 °F - 31.6 °F 99% 29.76 in 4.0 mi Calm Calm - N/A Snow Light Snow
4:15 AM 31.6 °F - 31.5 °F 99% 29.75 in 5.0 mi Calm Calm - N/A Snow Light Snow
4:35 AM 31.8 °F - 31.1 °F 97% 29.76 in 5.0 mi Calm Calm - N/A Snow Light Snow
4:55 AM 31.6 °F - 30.9 °F 97% 29.76 in 7.0 mi Calm Calm - N/A   Overcast
5:15 AM 31.5 °F - 30.6 °F 96% 29.76 in 7.0 mi Calm Calm - N/A Snow Light Snow
5:35 AM 31.1 °F 27.7 °F 30.7 °F 99% 29.77 in 4.0 mi NNE 3.5 mph - N/A Snow Light Snow
5:55 AM 31.1 °F - 30.6 °F 98% 29.77 in 2.5 mi Calm Calm - N/A Snow Light Snow
6:15 AM 31.1 °F 26.4 °F 30.2 °F 96% 29.78 in 2.5 mi North 4.6 mph - N/A Snow Light Snow
6:35 AM 30.9 °F 27.5 °F 29.5 °F 94% 29.79 in 1.5 mi North 3.5 mph - N/A Snow Light Snow
6:55 AM 30.6 °F - 29.1 °F 94% 29.80 in 1.5 mi Calm Calm - N/A Snow Light Snow
7:15 AM 30.7 °F - 28.9 °F 93% 29.80 in 2.0 mi Calm Calm - 0.01 in Snow Light Snow
7:35 AM 30.6 °F - 29.3 °F 95% 29.80 in 2.0 mi Calm Calm - 0.01 in Snow Light Snow
7:55 AM 30.7 °F - 29.8 °F 96% 29.80 in 2.0 mi Calm Calm - 0.01 in Snow Light Snow
8:15 AM 31.5 °F - 29.3 °F 92% 29.80 in 1.8 mi Calm Calm - N/A Snow Light Snow
8:35 AM 32.0 °F - 29.3 °F 90% 29.80 in 2.5 mi Calm Calm - N/A Snow Light Snow
8:55 AM 32.4 °F 26.0 °F 29.5 °F 89% 29.81 in 2.5 mi North 6.9 mph - 0.01 in Snow Light Snow
9:15 AM 32.9 °F 28.5 °F 29.5 °F 87% 29.81 in 5.0 mi NNE 4.6 mph - N/A Snow Light Snow
9:35 AM 34.3 °F - 30.2 °F 85% 29.79 in 7.0 mi Calm Calm - N/A   Overcast
9:55 AM 34.3 °F 30.2 °F 30.0 °F 84% 29.79 in 10.0 mi NW 4.6 mph - N/A   Overcast
10:15 AM 34.2 °F 28.2 °F 30.0 °F 85% 29.79 in 10.0 mi NNE 6.9 mph - N/A   Overcast
10:35 AM 34.0 °F 26.6 °F 30.2 °F 86% 29.80 in 10.0 mi NW 9.2 mph - N/A   Overcast
10:55 AM 34.2 °F 29.0 °F 30.4 °F 86% 29.79 in 10.0 mi North 5.8 mph - N/A   Overcast
11:15 AM 35.1 °F 31.0 °F 30.6 °F 84% 29.78 in 10.0 mi NNE 4.6 mph - N/A   Overcast
11:35 AM 34.9 °F 30.8 °F 31.1 °F 86% 29.78 in 10.0 mi NNW 4.6 mph - N/A   Overcast
11:55 AM 35.6 °F 29.9 °F 30.9 °F 83% 29.78 in 10.0 mi NW 6.9 mph - N/A   Overcast
12:15 PM 36.5 °F 29.7 °F 30.2 °F 78% 29.77 in 10.0 mi WNW 9.2 mph - N/A   Overcast
12:35 PM 37.4 °F 32.1 °F 30.0 °F 75% 29.77 in 10.0 mi WNW 6.9 mph - N/A   Overcast
12:55 PM 37.8 °F 31.8 °F 29.7 °F 73% 29.77 in 10.0 mi WNW 8.1 mph - N/A   Mostly Cloudy
1:35 PM 38.7 °F 34.3 °F 27.3 °F 64% 29.76 in 10.0 mi NNW 5.8 mph - N/A   Scattered Clouds
1:55 PM 39.7 °F 35.6 °F 28.8 °F 65% 29.76 in 10.0 mi WNW 5.8 mph - N/A   Mostly Cloudy
2:15 PM 40.5 °F - 29.1 °F 64% 29.75 in 10.0 mi Calm Calm - N/A   Scattered Clouds
2:35 PM 41.2 °F 39.2 °F 28.0 °F 60% 29.75 in 10.0 mi West 3.5 mph - N/A   Clear
2:55 PM 41.5 °F 39.6 °F 27.5 °F 57% 29.75 in 10.0 mi West 3.5 mph - N/A   Clear
3:15 PM 41.9 °F 40.0 °F 26.4 °F 54% 29.75 in 10.0 mi West 3.5 mph - N/A   Clear
3:35 PM 42.1 °F 40.2 °F 25.7 °F 52% 29.75 in 10.0 mi West 3.5 mph - N/A   Clear
3:55 PM 42.1 °F 38.4 °F 22.5 °F 46% 29.76 in 10.0 mi WNW 5.8 mph - N/A   Clear
4:15 PM 41.4 °F 39.4 °F 19.2 °F 41% 29.76 in 10.0 mi WNW 3.5 mph - N/A   Clear
4:35 PM 41.2 °F - 18.0 °F 39% 29.76 in 10.0 mi Calm Calm - N/A   Clear
4:55 PM 39.7 °F 37.6 °F 17.6 °F 41% 29.77 in 10.0 mi West 3.5 mph - N/A   Clear
5:15 PM 36.9 °F - 23.7 °F 59% 29.76 in 10.0 mi Calm Calm - N/A   Clear
5:35 PM 33.6 °F - 24.8 °F 70% 29.77 in 10.0 mi Calm Calm - N/A   Clear
7:35 PM 28.0 °F - 24.8 °F 88% 29.78 in 10.0 mi Calm Calm - N/A   Clear
8:35 PM 25.9 °F - 24.4 °F 94% 29.80 in 10.0 mi Calm Calm - N/A   Clear
8:55 PM 26.1 °F - 24.8 °F 95% 29.79 in 10.0 mi Calm Calm - N/A   Clear
9:15 PM 24.8 °F - 23.5 °F 95% 29.79 in 10.0 mi Calm Calm - N/A   Clear
9:35 PM 25.7 °F - 23.9 °F 93% 29.79 in 10.0 mi Calm Calm - N/A   Clear
9:55 PM 24.3 °F - 23.5 °F 97% 29.78 in 7.0 mi Calm Calm - N/A   Clear
10:15 PM 25.3 °F - 23.9 °F 94% 29.79 in 10.0 mi Calm Calm - N/A   Mostly Cloudy
10:35 PM 24.8 °F - 23.5 °F 95% 29.79 in 10.0 mi Calm Calm - N/A   Overcast
10:55 PM 25.5 °F - 23.9 °F 94% 29.80 in 10.0 mi Calm Calm - N/A   Overcast
11:15 PM 25.0 °F - 23.4 °F 94% 29.80 in 10.0 mi Calm Calm - N/A   Mostly Cloudy
11:35 PM 25.2 °F - 23.5 °F 94% 29.80 in 10.0 mi Calm Calm - N/A   Scattered Clouds
11:55 PM 23.9 °F - 22.5 °F 94% 29.80 in 7.0 mi Calm Calm - N/A   Scattered Clouds